LANDSAT 9

Last updated on Wed Nov 05 2025 00:02:31 GMT+0000 (Coordinated Universal Time)

1 49260U 21088A 25308.44183728 .00000499 00000+0 12081-3 0 9991 2 49260 98.2139 17.0992 0001302 83.8495 276.2851 14.57098785218271
UTC large
Height (km)
Speed (km/s)
/
Latitude / Longitude
Inclination (degrees)
Orbital Period (minutes)
Azimuth
Elevation
Range (km)
Doppler Factor

Next 0 passes for location: London (51.5072 / 0.1276)

Sorry there are no passes over London.